Погода в Сортавале

Хотите узнать прогноз погоды в Сортавале? Тогда Вам сюда: Погода в Сортавале

Поиск расширенной информации на нашем сайте:

Полезная информация:

Новости сайта



02.01.2020
Опубликован Долгосрочный прогноз погоды по городам России и ближнего зарубежья на январь 2020 года.
Карты: Прогноз на январь и февраль 2020 года, Сравнение прогнозируемой аномалии приземной температуры воздуха на январь 2020 года по разным моделям.




Погода в Сортавале - сегодня

Время (UTC), дата Ветер
(°,м/с) 
Видим.   Явления Облачность Т
(°С)
Тd
(°С)
f(%) Тe
(°С)
Pmin
(гПа)
dP
(гПа)
Po
(мм)
O2
(г/м3)
Тmin Tmax R s Состояние
почвы
06 05.04.20 310 (СЗ) 20000 м    8/4 600 м средняя, верхняя 
[Sc|Ac trans|Ci fib]
-1.1 -6.3 68 -4  1020.2  2.7  763  310  -3.8    0.7  равномерный
сухой снег
100% 
09 05.04.20 290 (З) 20000 м    6/6 600 м 
[Sc]
+1.1 -6.4 57 -2  1022.7  2.5  765  308           
12 05.04.20 300 (СЗ) 6-10{13}  8000 м  слаб. крупа{ливн. осадки}  9/8 600 м кучево-дожд., верхняя 
[Cb cap|Ci fib]
+1.2 -7.5 52 -2  1024.5  1.8  767  308           
15 05.04.20 300 (СЗ) 4-10{10}  20000 м    5/5 600 м кучево-дожд. 
[Cb cap]
+1.7 -11 38 1026.1  1.6  768  309      0.0     
18 05.04.20 310 (СЗ) 50000 м    ясно 
-1.7 -10.4 51 -1  1027.4  1.3  769  313    +3.2  0.0     
21 05.04.20 тихо ()   50000 м    ясно 
-5.3 -8.7 77 -5  1028.4  0.9  769  317           
00 06.04.20 тихо ()   50000 м    9/0 средняя, верхняя 
[Ac trans|Ci fib]
-4.8 -9.7 69 -5  1029.2  0.9  770  317           
03 06.04.20 290 (З) 20000 м    8/0 средняя, верхняя 
[Ac trans|Ci fib]
-3.3 -10.3 58 -3  1030.7  1.5  771  316  -6.5         
06 06.04.20 тихо ()   20000 м    9/0 средняя, верхняя 
[Ac trans|Ci fib]
-2.3 -8.6 62 -2  1031.6  0.9  772  315  -6.5         
09 06.04.20 100 (В) 20000 м    9/0 средняя, верхняя 
[Ac trans|Ci fib]
+0.8 -11.5 39 +1  1032.4  0.8  773  311           
12 06.04.20 190 (Ю) 20000 м    9/0 средняя, верхняя 
[Ac trans|Ci fib]
+1.5 -11.5 37 1032.7  0.3  773  311           
15 06.04.20 180 (Ю) 20000 м    9/0 средняя, верхняя 
[Ac trans|Ci fib]
+1 -8.6 49 -1  1032.3  -0.4  772  311           
18 06.04.20 170 (Ю) 50000 м    9/8 1500 м средняя, верхняя 
[Ac As|Ci fib]
+0.4 -5.5 65 1031.3  -1  772  311    +2.6       
21 06.04.20 180 (Ю) 50000 м    10/6 750 м средняя 
[Sc|Ac und]
+0.9 -4.2 69 -1  1029.9  -1.4  771  310           
00 07.04.20 170 (Ю) 50000 м    10/10 540 м 
[Sc]
+1.4 -0.8 85 1028.2  -1.7  769  309           
03 07.04.20 160 (Ю) 20000 м    10/10 450 м кучево-дожд. 
[Cb cap]
+0.8 -0.7 90 1026  -2.2  768  309  +0.1         
06 07.04.20 160 (Ю) 20000 м    9/3 600 м средняя, верхняя 
[Sc|Ac trans|Cs]
+3.6 +0.8 82 +2  1023.1  -2.9  766  304  +0.1         
09 07.04.20 170 (Ю) 30000 м    9/0 верхняя 
[Cs]
+5.6 +0.1 68 +5  1021.5  -1.6  764  302           
12 07.04.20 180 (Ю) 30000 м    9/0 средняя, верхняя 
[Ac lent|Cs]
+10.2 +0.1 49 +9  1015.6  -5.8  760  295           
15 07.04.20 210 (ЮЗ) 20000 м    9/0 верхняя 
[Ci fib]
+12.6 -0.7 40 +14  1012.3  -3.3  758  292           
18 07.04.20 220 (ЮЗ) 50000 м    9/0 средняя, верхняя 
[Ac trans|Ci sp]
+8 -0.6 55 +9  1011  -1.3  757  296    +14.3       
21 07.04.20 320 (СЗ) 50000 м    9/0 средняя 
[Ac As]
+9.5 +0.2 52 +9  1011.1  0.1  757  295           
00 08.04.20 310 (СЗ) 5{10}  50000 м    4/0 средняя, верхняя 
[Ac trans|Ci fib]
+5.9 +1 71 +4  1013.8  2.7  759  299           
03 08.04.20 310 (СЗ) 3{10}  20000 м    ясно 
+2.6 +0.1 84 +1  1016.9  761  304  +2.6         
06 08.04.20 310 (СЗ) 20000 м    3/0 верхняя 
[Ci fib]
+5.7 +0.4 69 +5  1019.4  2.6  763  301  +2.5         
Время (UTC), дата Ветер
(°,м/с) 
Видим.   Явления Облачность Т
(°С)
Тd
(°С)
f(%) Тe
(°С)
Pmin
(гПа)
dP
(гПа)
Po
(мм)
O2
(г/м3)
Тmin Tmax R s Состояние
почвы

Для получения пояснительной информации подведите курсор к названию столбца.

ПОГОДА в Сортавале - архив

Всё, что Вы хотите узнать о погоде в Сортавале - удобно и подробно!

Выберите нужную дату (начиная с 1 января 2019* года) и нажмите кнопку "Найти".
Будут отображены архивные сводки погоды по пункту Сортавала, начиная с указанной даты.


Отображать данные в формате CSV (для использования в таблицах Excel)


Внимание! Наш архив погоды предназначен исключительно для личного некоммерческого использования в познавательных целях. Если Вам необходимы официальные справки о состоянии погоды (для производственных, юридических, коммерческих и т.п. целей), обращайтесь в органы Росгидромета.

*Примечание: данная дата относится к архиву по метеостанциям СССР (Россия, СНГ, Балтия).
Архив по метеостанциям Зарубежной Европы и Азии (кроме Китая) хранится 10 дней, по другим регионам земного шара (Китай, Африка, Америка, Австралия, Океания) - 1 день.

Сортавала - район местоположения метеостанции


Название, широта, долгота, высота метеостанции:
Сортавала 61.7°ш. 30.7°д. 19 м над ур. моря [Российская Федерация]

Дополнительная информация

В oтличие oт бoльшинства пoгoдных сайтoв мы публикуем пoдрoбную метеoинфoрмацию в детальнoм прoфессиoнальнoм фoрмате.

Характеристики температуры и влажнoсти вoздуха измеряются на высoте 2 м в тени вдали oт зданий и деревьев.
Скoрoсть ветра измеряется на высoте 10 м (на урoвне рoста челoвека скoрoсть ветра ниже в 1.5-2 раза). Если метеoстанция нахoдится в гoрoде или в лесу, тo скoрoсть ветра занижена на 2-4 м/с пo сравнению с oткрытым местoм. Скoрoсть ветра над акватoриями крупных рек и oзёр, а также на вершинах хoлмoв на 2-5 м/с выше, чем в oбычных услoвиях.
Атмoсфернoе давление в разных тoчках местнoсти мoжет значительнo oтличаться oт давления на метеoстанции, в зависимoсти oт услoвий рельефа (при пoдъёме на 10 м давление пoнижается примернo на 1 мм рт.ст.).